| time (UTC) | temp F | wind direction | speed MPH | gust MPH | rain 1hr in | rain 24hr in | rain mn in | humidity % | barometer mb |
| 20260504140346 | 78 | 0.0 | 0.0 | 0.00 | 0.00 | 0.00 | 57 | 754.2 | |
| 20260504130122 | 74 | 0.0 | 0.0 | 0.00 | 0.00 | 0.00 | 60 | 751.7 | |
| 20260504080459 | 73 | 0.0 | 0.0 | 0.00 | 0.00 | 0.00 | 63 | 750.9 | |
| 20260504070235 | 68 | 0.0 | 0.0 | 0.00 | 0.00 | 0.00 | 71 | 748.1 | |
| 20260504045747 | 63 | 0.0 | 0.0 | 0.00 | 0.00 | 0.00 | 63 | 744.7 | |
| 20260504044211 | 63 | 0.0 | 0.0 | 0.00 | 0.00 | 0.00 | 63 | 744.6 | |
| 20260504042635 | 62 | 0.0 | 0.0 | 0.00 | 0.00 | 0.00 | 62 | 744.4 | |
| 20260504041059 | 62 | 0.0 | 0.0 | 0.00 | 0.00 | 0.00 | 61 | 744.4 | |
| 20260504035523 | 62 | 0.0 | 0.0 | 0.00 | 0.00 | 0.00 | 62 | 744.3 | |
| 20260504033947 | 63 | 0.0 | 0.0 | 0.00 | 0.00 | 0.00 | 60 | 744.6 | |
| 20260504032411 | 63 | 0.0 | 0.0 | 0.00 | 0.00 | 0.00 | 58 | 744.9 | |
| 20260504030835 | 63 | 0.0 | 0.0 | 0.00 | 0.00 | 0.00 | 57 | 744.8 | |
| 20260504025300 | 63 | 0.0 | 0.0 | 0.00 | 0.00 | 0.00 | 56 | 744.8 | |
| 20260504023724 | 63 | 0.0 | 0.0 | 0.00 | 0.00 | 0.00 | 55 | 745.1 | |
| 20260504022148 | 64 | 0.0 | 0.0 | 0.00 | 0.00 | 0.00 | 55 | 745.3 | |
| 20260504020612 | 64 | 0.0 | 0.0 | 0.00 | 0.00 | 0.00 | 54 | 745.4 | |
| 20260504015036 | 64 | 0.0 | 0.0 | 0.00 | 0.00 | 0.00 | 54 | 745.5 | |
| 20260504013500 | 64 | 0.0 | 0.0 | 0.00 | 0.00 | 0.00 | 54 | 745.7 | |
| 20260504010348 | 65 | 0.0 | 0.0 | 0.00 | 0.00 | 0.00 | 52 | 746.4 | |
| 20260504003236 | 67 | 0.0 | 0.0 | 0.00 | 0.00 | 0.00 | 50 | 747.2 | |
| 20260503234548 | 68 | 0.0 | 0.0 | 0.00 | 0.00 | 0.00 | 49 | 747.8 | |
| 20260503231436 | 69 | 0.0 | 0.0 | 0.00 | 0.00 | 0.00 | 49 | 748.5 | |
| 20260503222749 | 67 | 0.0 | 0.0 | 0.00 | 0.00 | 0.00 | 56 | 747.2 | |
| 20260503221212 | 66 | 0.0 | 0.0 | 0.00 | 0.00 | 0.00 | 61 | 746.7 | |
| 20260503214100 | 67 | 0.0 | 0.0 | 0.00 | 0.00 | 0.00 | 56 | 747.2 | |
| 20260503210948 | 68 | 0.0 | 0.0 | 0.00 | 0.00 | 0.00 | 54 | 747.7 |